EW2719 Weather Reports


time (UTC)temp
C
wind
direction
speed
KPH
gust
KPH
rain 1hr
cm
rain 24hr
cm
rain mn
cm
humidity
%
barometer
mb
20260510224549 2 286 8.0 12.9 0.00 0.00 0.00 84 1007.9
20260510223107 3 284 8.0 14.5 0.00 0.00 0.00 83 1008.0
20260510221545 3 292 11.3 20.9 0.00 0.00 0.00 82 1008.0
20260510220043 3 296 9.7 17.7 0.00 0.00 0.00 82 1008.4
20260510214541 3 289 9.7 14.5 0.00 0.00 0.00 81 1008.5
20260510213039 3 298 9.7 16.1 0.00 0.00 0.00 80 1008.7
20260510211538 3 281 9.7 16.1 0.00 0.00 0.00 79 1008.8
20260510210034 3 288 9.7 14.5 0.00 0.00 0.00 79 1009.0
20260510204532 3 288 8.0 14.5 0.00 0.00 0.00 78 1009.1
20260510203030 3 286 8.0 12.9 0.00 0.00 0.00 76 1009.3
20260510201527 4 281 4.8 9.7 0.00 0.00 0.00 74 1009.4
20260510200125 5 288 4.8 9.7 0.00 0.00 0.00 73 1009.5
20260510194523 5 285 4.8 12.9 0.00 0.00 0.00 71 1009.6
20260510193019 6 304 9.7 16.1 0.00 0.00 0.00 70 1009.3
20260510191515 6 302 8.0 12.9 0.00 0.00 0.00 69 1009.4
20260510190013 7 294 9.7 22.5 0.00 0.00 0.00 66 1009.6
20260510184510 7 296 12.9 22.5 0.00 0.00 0.00 64 1009.5
20260510183010 8 289 11.3 19.3 0.00 0.00 0.00 63 1009.6
20260510181509 8 315 9.7 19.3 0.00 0.00 0.00 63 1009.7
20260510180007 9 311 16.1 24.1 0.00 0.00 0.00 60 1009.6
20260510174506 9 317 17.7 25.7 0.00 0.00 0.00 58 1009.7
20260510173004 10 286 16.1 29.0 0.00 0.00 0.00 58 1009.8
20260510171603 10 338 17.7 27.4 0.00 0.00 0.00 59 1009.9
20260510170122 10 315 16.1 27.4 0.00 0.00 0.00 58 1010.2
20260510164604 11 323 19.3 25.7 0.00 0.00 0.00 57 1010.3
20260510163053 12 315 9.7 25.7 0.00 0.00 0.00 52 1010.4
20260510161551 12 280 16.1 22.5 0.00 0.00 0.00 54 1010.5
20260510160049 12 305 17.7 27.4 0.00 0.00 0.00 54 1010.7
20260510154548 12 296 19.3 29.0 0.00 0.00 0.00 55 1010.9
20260510153052 12 293 19.3 27.4 0.00 0.00 0.00 55 1011.0
20260510151546 12 293 17.7 24.1 0.00 0.00 0.00 58 1011.0
20260510150047 12 313 17.7 27.4 0.00 0.00 0.00 55 1011.1
20260510144548 13 302 16.1 29.0 0.00 0.00 0.00 55 1011.2
20260510143044 13 285 17.7 27.4 0.00 0.00 0.00 58 1011.2
20260510141546 12 360 12.9 22.5 0.00 0.00 0.00 62 1011.4
20260510140041 11 327 12.9 25.7 0.00 0.00 0.00 59 1011.4
20260510134540 12 301 11.3 27.4 0.00 0.00 0.00 61 1011.5
20260510133038 13 251 14.5 24.1 0.00 0.00 0.00 60 1011.7
20260510131537 13 290 14.5 25.7 0.00 0.00 0.00 62 1011.8
20260510130046 13 263 16.1 25.7 0.00 0.00 0.00 62 1012.0
20260510124543 12 308 17.7 29.0 0.00 0.00 0.00 63 1012.0
20260510123033 13 319 16.1 24.1 0.00 0.00 0.00 64 1012.2
20260510121535 12 295 14.5 25.7 0.00 0.00 0.00 68 1012.4
20260510120033 13 274 14.5 22.5 0.00 0.00 0.00 71 1012.4
20260510114529 12 296 14.5 27.4 0.00 0.00 0.00 69 1012.6
20260510113029 11 294 11.3 24.1 0.00 0.00 0.00 73 1012.8
20260510111527 11 307 14.5 22.5 0.00 0.00 0.00 74 1012.9
20260510110037 11 287 17.7 25.7 0.00 0.00 0.00 74 1013.0
20260510104525 11 304 14.5 25.7 0.00 0.00 0.00 74 1013.1
20260510103024 11 302 17.7 29.0 0.00 0.00 0.00 73 1013.3
20260510101531 12 296 16.1 25.7 0.00 0.00 0.00 72 1013.2
20260510100024 12 329 14.5 27.4 0.00 0.00 0.00 71 1013.2
20260510094521 12 329 16.1 25.7 0.00 0.00 0.00 74 1013.3
20260510093019 12 289 11.3 24.1 0.00 0.00 0.00 72 1013.3
20260510091520 13 316 14.5 20.9 0.00 0.00 0.00 71 1013.4
20260510090018 12 298 6.4 17.7 0.00 0.00 0.00 77 1013.5
20260510084511 11 5 6.4 19.3 0.00 0.00 0.00 76 1013.8
20260510083008 11 336 8.0 16.1 0.00 0.00 0.00 78 1014.0
20260510081509 11 311 6.4 16.1 0.00 0.00 0.00 79 1014.1
20260510080007 11 293 11.3 19.3 0.00 0.00 0.00 80 1014.2
20260510074506 11 290 9.7 20.9 0.00 0.00 0.00 80 1014.1
20260510073004 10 325 9.7 17.7 0.00 0.00 0.00 75 1014.1
20260510071502 11 325 12.9 19.3 0.00 0.00 0.00 74 1014.1
20260510070059 10 5 6.4 14.5 0.00 0.00 0.00 76 1014.1
20260510064558 10 340 8.0 16.1 0.00 0.00 0.00 80 1014.1
20260510063055 10 5 11.3 16.1 0.00 0.00 0.00 81 1014.1
20260510061550 9 342 9.7 17.7 0.00 0.00 0.00 83 1014.2
20260510060046 8 338 6.4 16.1 0.00 0.00 0.00 84 1014.4
20260510054541 8 339 9.7 17.7 0.00 0.00 0.00 86 1014.4
20260510053036 7 325 11.3 16.1 0.00 0.00 0.00 87 1014.5
20260510051532 7 302 8.0 14.5 0.00 0.00 0.00 87 1014.5
20260510050028 7 293 11.3 19.3 0.00 0.00 0.00 87 1015.2
20260510044524 7 289 9.7 17.7 0.00 0.00 0.00 89 1014.7
20260510043019 7 262 6.4 16.1 0.00 0.00 0.00 89 1014.7
20260510041517 7 238 6.4 11.3 0.00 0.00 0.00 89 1014.7
20260510040012 7 230 3.2 9.7 0.00 0.00 0.00 88 1014.8
20260510034521 7 217 4.8 8.0 0.00 0.00 0.00 88 1015.0
20260510033014 7 213 6.4 9.7 0.00 0.00 0.00 88 1015.0
20260510031507 7 211 4.8 8.0 0.00 0.00 0.00 87 1015.0
20260510030006 7 218 6.4 9.7 0.00 0.00 0.00 87 1015.3
20260510024504 7 217 4.8 9.7 0.00 0.00 0.00 86 1015.4
20260510023002 7 220 4.8 8.0 0.00 0.00 0.00 86 1015.5
20260510021502 7 212 4.8 8.0 0.00 0.00 0.00 85 1015.7
20260510020059 7 218 4.8 8.0 0.00 0.00 0.00 85 1015.9
20260510014557 7 231 3.2 8.0 0.00 0.00 0.00 84 1016.0
20260510013056 7 216 4.8 8.0 0.00 0.00 0.00 83 1016.1
20260510011555 7 196 3.2 8.0 0.00 0.00 0.00 83 1016.0
20260510010053 7 173 8.0 9.7 0.00 0.00 0.00 80 1016.2
20260510004551 8 199 3.2 6.4 0.00 0.00 0.00 78 1016.4
20260510003059 8 204 4.8 8.0 0.00 0.00 0.00 75 1016.7
20260510001545 8 192 1.6 8.0 0.00 0.00 0.00 75 1016.8
20260510000042 8 171 6.4 9.7 0.00 0.00 0.00 75 1017.0
20260509234543 8 160 8.0 9.7 0.00 0.00 0.00 74 1017.3
20260509233038 8 170 1.6 6.4 0.00 0.00 0.00 71 1017.6
20260509231534 8 157 1.6 6.4 0.00 0.00 0.00 70 1017.9
20260509230037 8 155 0.0 4.8 0.00 0.00 0.00 71 1018.0